N4WEB Tampa FL US current weather conditions

sailwx.info

Wind from 357 at 0 knots gusting 0

Air temperature 26.7° C
Dewpoint 17.1° C

Last reported at 2020-Feb-17 17:42 UTC.
Time now 2020-Feb-17 19:12 UTC

Location: N 28°05' W 082°28'.
View on Google Maps.

See reports from other nearby stations

  
Tides and Currents Weather Stations Pressure Air Temp Water Temp Dewpoint Dewpoint Depression Visibility Wind Speed Wind Dir Waves Ship Positions
date/time (UTC)wind fromknots sea level pressurealtimeterstation pressurevisibilityair tempwater tempwave heightnotes
2020-Feb-17 17:42 357 0 gusting 0 26.7
2020-Feb-17 17:27 345 1 gusting 0 26.1
2020-Feb-17 17:12 179 1 gusting 2 26.1
2020-Feb-17 16:42 359 25.0
2020-Feb-17 16:27 007 25.0
2020-Feb-17 16:17 142 0 gusting 0 24.4
2020-Feb-17 15:57 146 23.9
2020-Feb-17 15:42 139 22.8
2020-Feb-17 14:57 127 21.1
2020-Feb-17 14:42 091 1 gusting 1 20.6
2020-Feb-17 14:27 046 20.6
2020-Feb-17 14:12 046 20.0
2020-Feb-17 13:42 046 20.0
2020-Feb-17 13:27 046 19.4
2020-Feb-17 13:12 046 18.9
2020-Feb-17 12:57 046 18.3
2020-Feb-17 12:27 046 18.3
2020-Feb-17 12:12 046 18.3
2020-Feb-17 11:57 046 18.9
2020-Feb-17 11:42 046 18.9
2020-Feb-17 11:27 046 18.9
2020-Feb-17 10:57 046 19.4
2020-Feb-17 10:42 046 19.4
2020-Feb-17 10:12 046 20.0
2020-Feb-17 09:57 046 20.0
2020-Feb-17 09:42 046 20.0
2020-Feb-17 09:27 046 20.0
2020-Feb-17 09:12 046 20.0
2020-Feb-17 08:57 046 20.0
2020-Feb-17 08:42 046 2 gusting 0 20.0
2020-Feb-17 08:27 128 1 gusting 0 19.4
2020-Feb-17 07:57 193 19.4
2020-Feb-17 07:27 193 20.0
2020-Feb-17 06:42 193 20.0
2020-Feb-17 06:12 193 20.0
2020-Feb-17 05:57 152 0 gusting 0 20.0
2020-Feb-17 05:12 104 20.6
2020-Feb-17 04:57 104 20.6
2020-Feb-17 04:42 104 20.6
2020-Feb-17 04:27 359 20.6
2020-Feb-17 04:12 028 20.6
2020-Feb-17 03:42 083 20.6
2020-Feb-17 03:27 028 20.6
2020-Feb-17 02:42 031 1 20.6
2020-Feb-17 02:27 066 0 gusting 0 20.6
2020-Feb-17 01:13 350 21.1
2020-Feb-17 00:43 357 21.7
2020-Feb-17 00:28 359 21.7
2020-Feb-17 00:13 359 22.2
2020-Feb-16 23:58 014 22.2
2020-Feb-16 23:43 350 0 gusting 0 22.8
2020-Feb-16 23:28 001 1 gusting 0 22.8
2020-Feb-16 22:58 352 0 23.9
2020-Feb-16 22:43 342 2 gusting 1 24.4
2020-Feb-16 22:28 006 1 gusting 2 25.0
2020-Feb-16 22:13 343 1 25.6
2020-Feb-16 21:58 345 1 gusting 1 25.6
2020-Feb-16 21:43 347 26.1
2020-Feb-16 21:28 353 0 gusting 2 26.1
2020-Feb-16 20:43 347 0 27.8
2020-Feb-16 20:28 27.8
2020-Feb-16 19:58 024 27.2
2020-Feb-16 19:43 359 27.2
2020-Feb-16 19:28 359 27.2
2020-Feb-16 19:13 359 27.2
2020-Feb-16 18:58 359 27.8
2020-Feb-16 18:43 359 0 27.8
2020-Feb-16 18:28 359 26.7
2020-Feb-16 18:13 359 0 26.7
2020-Feb-16 17:58 138 26.1
2020-Feb-16 17:28 359 25.6
2020-Feb-16 17:13 042 0 25.6
2020-Feb-16 16:58 359 25.6
2020-Feb-16 16:43 359 25.0
2020-Feb-16 16:28 359 25.0
2020-Feb-16 15:58 159 2 gusting 7 24.4
2020-Feb-16 15:43 359 2 23.3
2020-Feb-16 15:12 117 22.8
2020-Feb-16 14:58 091 22.2
2020-Feb-16 13:58 108 18.9
2020-Feb-16 13:43 108 17.8
2020-Feb-16 13:28 176 0 gusting 0 16.7
2020-Feb-16 12:28 056 15.0
2020-Feb-16 11:58 082 15.0
2020-Feb-16 11:43 082 15.0
2020-Feb-16 11:28 082 15.0
2020-Feb-16 11:13 082 15.0
2020-Feb-16 10:58 082 15.0
2020-Feb-16 10:43 082 15.0
2020-Feb-16 10:28 082 15.0
2020-Feb-16 10:13 082 15.0
2020-Feb-16 09:43 082 15.0
2020-Feb-16 09:13 079 15.6
2020-Feb-16 08:43 020 15.6
2020-Feb-16 08:27 020 16.1
2020-Feb-16 08:13 020 16.1
2020-Feb-16 07:58 020 16.1
2020-Feb-16 07:43 020 16.1
2020-Feb-16 07:13 020 16.7
2020-Feb-16 06:58 020 16.7
2020-Feb-16 06:13 091 0 17.2
2020-Feb-16 05:57 075 17.2
2020-Feb-16 05:42 105 17.8
2020-Feb-16 04:57 132 17.8
2020-Feb-16 04:12 124 18.3
2020-Feb-16 03:57 139 18.3
2020-Feb-16 03:42 139 18.9
2020-Feb-16 03:27 139 18.9
2020-Feb-16 03:12 139 18.9
2020-Feb-16 02:57 015 19.4
2020-Feb-16 02:42 015 19.4
2020-Feb-16 02:27 015 19.4
2020-Feb-16 02:12 015 20.0
2020-Feb-16 01:42 155 20.0
2020-Feb-16 01:27 163 20.6
2020-Feb-16 01:12 015 1 gusting 0 20.6
2020-Feb-16 00:57 020 0 gusting 0 21.1
2020-Feb-16 00:42 141 21.1
2020-Feb-16 00:27 113 21.7
2020-Feb-15 23:27 065 0 23.3
2020-Feb-15 23:12 059 0 gusting 1 23.3
2020-Feb-15 22:42 006 1 gusting 0 24.4
2020-Feb-15 22:27 055 1 gusting 0 25.0
2020-Feb-15 22:12 127 25.0
2020-Feb-15 21:42 127 25.0
2020-Feb-15 21:27 359 1 26.1
2020-Feb-15 20:42 031 0 25.6
2020-Feb-15 20:27 155 2 25.6
2020-Feb-15 20:12 359 2 gusting 4 26.7
2020-Feb-15 19:57 015 1 gusting 1 26.1
2020-Feb-15 19:27 063 3 gusting 2 25.0
2020-Feb-15 19:12 359 1 26.1